Location: Sunny Point
(33.0946°N, 85.0574°W)
Time: 08:54:38
(UTC+00:00)

ISS - Pass Details

Date: 31 May 2024
Orbit: 411 x 425 km, 51.6° (Epoch: 20 June)

Event Time Altitude Azimuth Distance (km) Brightness Sun altitude
Rises 01:26:25 0° 316° (NW) 2,389 2.0 -8.6°
Reaches altitude 10° 01:28:33 10° 318° (NW) 1,519 0.5 -9.0°
Maximum altitude 01:31:57 71° 44° (NE) 451 -3.7 -9.6°
Enters shadow 01:34:40 15° 127° (SE) 1,241 -2.1 -10.0°
